Flag for Moldova Weather past 2 weeks in Tiraspol, Moldova

Now
66 °F

Clear.


Feels Like: 66 °F
Forecast: 60 / 91 °F
Wind: 1 mph from East

Location: Chisinau International Airport

Current Time: Jul 29, 2014 at 3:51:21 AM

Latest Report: Jul 29, 2014 at 3:00 AM


Visibility: 10 mi

Pressure: 29.98 "Hg

Humidity: 60%

Dew point: 52 °F

Location of TiraspolLocation

Historic Weather in Tiraspol — Graph

°F

Tiraspol temperature yesterday

Maximum temperature yesterday: 91 °F (at 3:00 PM)
Minimum temperature yesterday: 59 °F (at 6:30 AM)
Average temperature yesterday: 77 °F

Past Weeks' High & Low Weather Summary

 TemperatureHumidityPressure
High91 °F (Jul 28, 3:00 PM)88% (Jul 14, 3:30 AM)30.07 "Hg (Jul 14, 3:30 AM)
Low59 °F (Jul 14, 4:00 AM)21% (Jul 27, 4:00 PM)29.77 "Hg (Jul 21, 4:30 PM)
Average75 °F60%29.90 "Hg
* Reported Jul 14 3:30 AM — Jul 29 3:00 AM, Tiraspol, Weather by CustomWeather, © 2014

Note: Actual official high and low records may vary slightly from our data, if they occured in-between our weather recording intervals... More about our weather records

Advertising

Tiraspol weather history for previous 24 hours

 ConditionsComfort  
Time TempWeatherWind HumidityBarometerVisibility
3:00 AM
Jul 29
66 °FClear.1 mph60%29.98 "Hg10 mi
2:30 AM61 °FClear.2 mph77%29.98 "Hg10 mi
2:00 AM64 °FClear.5 mph68%29.98 "Hg10 mi
1:30 AM66 °FClear.1 mph60%29.98 "Hg10 mi
1:00 AM68 °FClear.No wind53%29.98 "Hg10 mi
12:30 AM70 °FClear.2 mph46%29.98 "Hg10 mi
12:00 AM73 °FClear.3 mph41%29.98 "Hg10 mi
11:30 PM
Jul 28
73 °FClear.5 mph41%29.95 "Hg10 mi
11:00 PM75 °FClear.2 mph39%29.98 "Hg10 mi
10:30 PM77 °FClear.1 mph36%29.98 "Hg10 mi
10:00 PM75 °FClear.5 mph36%29.98 "Hg10 mi
9:30 PM79 °FPassing clouds.3 mph34%29.98 "HgN/A
9:00 PM77 °FSunny.5 mph34%29.98 "Hg10 mi
8:30 PM81 °FSunny.6 mph28%29.95 "Hg10 mi
8:00 PM82 °FSunny.6 mph28%29.95 "Hg10 mi
7:30 PM86 °FSunny.8 mph25%29.95 "Hg10 mi
7:00 PM86 °FPassing clouds.10 mph25%29.95 "HgN/A
6:30 PM88 °FPassing clouds.12 mph24%29.95 "HgN/A
6:00 PM88 °FScattered clouds.13 mph27%29.98 "HgN/A
5:30 PM88 °FScattered clouds.12 mph25%29.98 "HgN/A
5:00 PM90 °FScattered clouds.12 mph26%29.98 "HgN/A
4:30 PM90 °FScattered clouds.13 mph27%29.98 "HgN/A
4:00 PM90 °FScattered clouds.12 mph27%29.98 "HgN/A
3:30 PM91 °FScattered clouds.12 mph23%29.98 "HgN/A
3:00 PM91 °FScattered clouds.13 mph26%29.98 "HgN/A
2:30 PM90 °FPartly sunny.10 mph26%29.98 "HgN/A
2:00 PM90 °FPartly sunny.12 mph26%30.01 "HgN/A
1:30 PM90 °FScattered clouds.9 mph27%30.01 "HgN/A
1:00 PM90 °FPassing clouds.9 mph27%30.01 "HgN/A
12:30 PM88 °FPassing clouds.12 mph25%30.01 "HgN/A
12:00 PM88 °FPassing clouds.9 mph29%30.04 "HgN/A
11:30 AM86 °FPassing clouds.7 mph33%30.04 "HgN/A
11:00 AM84 °FPassing clouds.7 mph35%30.04 "HgN/A
10:30 AM81 °FScattered clouds.7 mph45%30.04 "HgN/A
10:00 AM79 °FScattered clouds.3 mph48%30.04 "HgN/A
9:30 AM75 °FScattered clouds.6 mph57%30.04 "HgN/A
9:00 AM72 °FScattered clouds.No wind65%30.04 "HgN/A
8:30 AM72 °FPassing clouds.2 mph65%30.04 "HgN/A
8:00 AM70 °FSunny.No wind73%30.04 "Hg10 mi
7:30 AM66 °FSunny.No wind83%30.04 "Hg10 mi
7:00 AM63 °FSunny.No wind83%30.04 "Hg10 mi
6:30 AM59 °FClear.2 mph88%30.01 "Hg10 mi
5:30 AM61 °FClear.2 mph83%30.01 "Hg10 mi
5:00 AM63 °FClear.2 mph83%30.01 "Hg10 mi
4:30 AM63 °FClear.No wind77%30.01 "Hg10 mi
4:00 AM61 °FClear.3 mph88%30.01 "Hg10 mi
3:30 AM64 °FClear.1 mph78%30.01 "Hg10 mi
3:00 AM63 °FClear.No wind83%30.01 "Hg10 mi
Weather by CustomWeather, © 2014

See weather overviewHow to use our weather pages